TITAN 3C TRANSTAGE DEB, 43454

Orbit data source: Space-Track

TITAN 3C TRANSTAGE DEB, 43454 is space debris in GEO originally from a launch on Sun, 09 Feb 1969 UTC launched from the Air Force Eastern Test Range (AFETR). Debris objects in space refer to the collection of defunct objects orbiting the Earth. Examples of debris include non-operational satellites, rocket bodies, and fragments generated from explosions, collisions, or faulty payload assembly.

Not visible in the next 10 days
Identifier
43454, 1969-013M
Orbit
GEO
Country
Flag of USUS
Related business
Manufacturer
Martin Marietta
Mission
Spacecraft
Bus & Motor
Unknown
Mass
Unknown
Launch date (UTC)
1969-02-09 (57 years ago)
Launch vehicle
Unknown
Launch site
Air Force Eastern Test Range (AFETR)
Object type
Payload
Rocket body
Debris
Shape & HBR
Unknown shape, 1.1 m
Radar Cross Section
RCS unknown

Expand to show TLE details & history
Last TLE update: 2 days ago

TLE from 2 days ago
0 TITAN 3C TRANSTAGE DEB
1 43454U 69013M   26094.05599919 -.00000028  00000-0  00000-0 0  9998
2 43454   0.9954 130.6664 0546303 340.4661 254.7534  1.02843613 29874
Epoch: 2026-04-04T01:20Z
TLE epoch observation values (Epoch: 2026-04-04T01:20:38.330Z)
Latitude
-0.7423°
Longitude
147.45472°
Altitude
35,786.038 km
Speed
3.048 km/s
True Right ascension
23h 59m 58s
True Declination
0° 44' 30"
Sunlit
Object was in daylight at epoch
Visualization orbit readout
Latitude
Unknown
Longitude
Unknown
Altitude
Unknown
Speed
Unknown
Apparent Right ascension
Unknown
Apparent Declination
Unknown
Sunlit
N/A
Visualization observer readout
Local Sidereal Time
22:28:17
Azimuth
Unknown
Elevation
Unknown
Doppler factor
Unknown
Orbital elements
Apogee altitude
37,346.745 km
Perigee altitude
32,816.809 km
Semi-major axis
41,459.914 km
Eccentricity
0.05463
Inclination
0.9954°
RAAN
130.6664°
Arg. of periapsis
340.4661°
True anomaly
248.83073°
Mean anomaly
254.7534°
Eccentric anomaly
251.78024°
Mean motion
0.2571 °/min
Orbital period
1,400.24 mins
BSTAR
0
Loading maneuver chart data...
Computing Atmospheric mass density...

Documentation

Showing up to 5 results
|